RH
17 9 9 10 11 11 12 19 20 15 10 9 10 10 13 11 12 12 14 15 14 13 12 12 12 12 14 14 16 19 26 38 34 30 25 22 22 26 20 19 25 37 24 18 19
34 19 12 12 13 14 16 20 31 28 24 14 11 14 15 19 18 17 20 27 24 20 19 18 17 16 15 14 16 19 27 32 38 38 36 32 28 27 28 24 28 28 28 24 22
48 35 26 19 24 30 28 30 37 32 28 23 19 22 21 31 29 28 30 34 33 34 34 30 29 32 25 22 20 20 26 28 32 36 43 47 47 44 37 38 36 30 24 30 29
70 65 64 51 61 58 54 50 58 52 48 39 34 36 34 40 49 51 52 50 45 44 41 41 38 39 42 42 34 25 38 32 52 54 58 63 59 55 51 47 44 40 41 37 34
82 81 82 79 67 71 72 71 77 72 66 57 46 51 50 54 58 55 53 54 58 59 64 54 49 46 50 50 45 38 30 40 57 62 70 76 71 69 65 61 56 52 48 45 45
89 91 89 90 86 78 81 83 82 81 75 67 61 57 60 67 62 57 63 70 63 55 58 58 46 39 40 51 49 44 29 31 34 52 65 66 61 66 69 69 66 60 55 53 45
87 80 77 66 78 98 92 82 75 82 93 64 64 61 62 66 58 65 66 68 59 52 50 42 26 22 34 46 50 59 58 45 39 46 47 60 62 68 68 68 65 49 46 42 36
60 49 62 83 73 65 67 80 72 71 70 67 70 63 67 59 53 59 57 63 46 50 45 26 16 25 39 50 57 52 55 57 55 47 49 61 68 66 71 69 59 39 34 28 33
14 12 13 15 35 55 69 76 83 77 70 64 56 59 72 66 47 45 54 45 30 43 23 13 12 20 41 48 51 60 58 53 53 51 52 61 71 66 63 57 40 30 23 30 47
22 22 13 12 12 13 15 25 47 70 53 65 62 52 65 70 56 41 36 36 23 22 15 12 12 30 39 41 47 43 47 50 48 49 44 54 58 60 54 27 15 9 8 12 42
28 24 24 34 20 16 15 15 15 16 30 41 40 55 50 79 58 52 37 25 23 12 13 14 19 36 39 42 46 45 50 52 35 29 24 21 30 64 47 9 6 7 5 6 36
32 43 47 50 54 44 36 27 22 20 18 16 21 24 41 46 47 45 29 20 15 14 14 12 13 23 36 40 42 49 52 41 30 25 20 21 29 39 31 13 9 6 5 7 34
45 49 55 61 62 61 50 47 46 36 29 26 20 19 17 20 27 36 49 32 28 21 15 13 11 23 37 40 39 57 55 46 42 29 24 22 17 22 17 10 7 7 9 10 30
70 79 79 78 74 70 63 58 62 59 55 45 35 27 23 18 18 19 36 55 48 32 26 18 27 13 14 35 49 42 43 48 51 47 36 32 22 28 16 15 10 10 10 12 28
90 92 86 84 78 73 65 62 58 49 50 41 36 38 31 28 24 21 24 22 30 38 38 32 32 38 16 14 32 45 51 48 38 44 36 31 39 12 25 12 10 11 10 19 31
34 19 21 20 28 27 27 29 28 27 41 40 35 34 38 35 29 28 27 30 26 29 39 40 51 38 46 18 18 32 34 41 32 25 17 26 46 11 14 13 11 10 11 22 19
37 66 58 19 9 9 10 11 14 23 40 33 35 35 36 41 42 31 29 30 40 27 22 43 56 57 50 48 36 23 22 21 29 29 18 44 34 15 16 18 18 19 23 22 20
27 23 19 13 5 5 6 7 9 10 21 36 19 29 30 30 35 42 31 29 36 35 32 31 33 48 47 53 57 58 40 50 41 29 18 42 27 23 24 28 27 26 26 35 42
6 6 4 6 5 5 5 6 5 11 14 14 13 17 19 20 26 30 35 31 28 28 31 45 36 63 78 71 59 58 46 69 70 63 46 42 39 32 33 39 38 41 44 48 59
9 8 7 7 6 6 7 5 4 4 5 6 8 13 16 18 22 22 25 30 33 27 28 46 46 50 80 99 84 78 62 70 68 62 62 57 67 57 50 54 56 56 62 65 65
17 15 12 16 15 14 11 8 6 4 4 5 6 8 12 20 22 24 25 28 37 37 41 53 62 45 46 54 76 98 89 87 99 97 84 82 76 74 79 72 58 64 76 78 63
18 19 17 24 26 22 18 14 12 10 7 6 5 6 7 11 15 36 38 28 57 71 87 85 99 80 53 67 95 100 99 100 87 88 98 99 83 84 73 63 68 73 82 66 54
27 25 27 28 36 34 32 26 19 16 12 8 6 5 7 8 20 46 67 87 42 56 48 52 95 91 100 97 90 92 90 100 99 96 88 100 84 100 90 94 89 71 72 65 72
64 60 54 53 52 53 53 48 38 26 17 11 9 9 10 11 22 36 47 93 100 89 78 88 98 96 92 98 97 94 100 100 100 93 91 94 95 92 100 99 86 83 74 75 74
61 46 17 34 61 76 82 64 56 45 31 15 11 10 9 11 16 26 43 69 96 100 100 100 88 96 100 100 99 95 98 100 95 93 97 98 98 89 84 73 76 82 84 82 81
6 6 7 7 11 65 74 88 78 59 45 29 16 12 10 11 13 27 43 84 94 95 100 100 100 95 96 100 99 100 95 100 100 100 98 100 90 100 98 98 91 91 86 82 84
28 25 22 17 19 74 70 68 67 71 53 37 22 18 17 13 11 14 41 51 75 100 99 97 97 96 92 100 100 96 75 100 92 96 100 100 97 98 96 96 95 92 86 83 89
Wind_Speed
42 41 42 43 40 39 37 35 35 36 35 36 35 34 30 29 28 25 23 21 21 22 22 21 21 23 24 25 23 23 23 27 29 30 34 37 38 36 32 32 32 33 29 28 29
41 43 42 42 41 39 37 36 37 37 38 38 36 35 31 27 26 27 24 19 21 21 21 21 21 23 25 26 25 26 27 32 30 28 31 37 38 38 37 35 33 36 33 30 33
43 41 40 40 38 38 37 37 38 37 40 38 35 34 32 28 27 27 25 24 22 23 23 23 25 25 28 27 29 29 29 34 34 29 30 33 33 35 36 38 34 36 38 36 36
47 40 39 39 37 40 39 37 37 37 36 36 34 35 33 30 30 24 26 30 30 29 29 28 26 25 26 30 33 31 30 35 31 26 27 27 31 35 36 37 34 35 35 36 36
50 51 43 43 42 41 40 38 39 39 37 37 35 35 34 32 34 31 30 32 33 29 28 29 29 24 27 31 32 32 31 34 34 26 26 26 30 34 38 33 34 37 37 37 37
47 46 46 46 48 46 45 41 39 35 33 35 35 36 36 32 32 30 29 26 26 25 24 24 24 25 24 25 29 30 29 32 33 29 26 24 32 33 36 32 35 36 37 36 33
43 44 44 44 45 40 41 39 39 37 35 32 30 30 28 30 31 27 27 25 25 22 23 20 21 23 19 23 25 29 31 31 31 34 32 26 32 32 32 33 34 33 31 29 30
44 42 42 43 43 42 40 38 34 35 37 33 30 25 20 30 29 23 21 24 23 21 19 19 21 22 19 22 21 25 26 28 31 34 29 24 29 27 27 29 30 28 26 25 25
47 47 47 46 45 44 43 43 42 38 39 36 33 27 21 24 26 21 19 20 20 22 19 19 23 22 20 22 18 23 21 22 22 23 19 17 21 23 24 26 29 25 26 26 25
53 53 52 50 50 49 49 47 45 44 41 38 37 33 27 21 23 25 24 21 17 22 21 22 21 19 22 23 18 22 18 21 23 22 20 18 18 21 24 26 23 20 22 25 20
59 58 57 58 56 55 54 52 50 50 49 42 43 39 35 30 24 29 28 24 21 21 25 25 20 21 27 25 22 24 21 25 28 21 19 18 15 15 25 23 22 24 25 27 19
63 63 62 61 61 60 59 58 56 55 52 51 48 45 40 41 36 27 28 27 27 24 27 25 21 27 27 26 22 25 27 27 28 25 23 23 20 23 24 23 24 27 30 30 23
69 68 67 65 64 63 63 61 60 59 59 55 52 50 45 47 44 33 34 29 30 31 27 29 27 29 30 30 25 24 27 29 27 27 27 28 30 24 23 24 27 29 29 31 20
75 73 70 70 69 67 68 66 66 64 64 58 55 54 53 49 52 48 43 40 37 34 36 37 28 31 34 35 28 31 30 29 28 31 32 32 36 23 29 31 33 32 33 33 24
74 71 70 70 69 68 67 66 66 64 64 62 60 59 58 55 52 52 48 50 45 39 42 42 40 36 37 35 36 37 35 31 29 34 35 36 32 33 30 36 37 36 37 35 32
63 63 63 62 64 63 63 63 63 64 67 68 64 63 62 58 54 55 54 51 50 48 47 46 44 43 40 41 38 37 39 33 35 41 43 35 28 39 34 37 38 38 42 39 39
66 67 65 64 63 64 64 64 65 68 68 65 63 65 65 62 58 55 54 54 51 51 49 45 46 42 43 46 45 40 38 41 43 44 41 36 36 39 40 37 38 40 38 40 41
67 66 66 64 66 67 68 68 70 66 61 58 58 63 66 63 62 58 57 57 58 53 50 53 50 44 43 43 46 42 42 45 45 46 44 41 43 42 40 40 39 39 39 39 40
67 67 66 67 67 65 68 71 74 67 64 61 62 66 63 58 62 64 63 59 58 58 57 54 53 45 39 42 42 43 46 38 40 45 46 45 43 42 41 42 39 36 37 40 41
67 65 61 63 65 65 68 72 73 70 67 67 67 66 65 61 64 65 65 63 60 58 58 56 54 52 47 41 48 50 45 40 40 43 44 43 39 42 45 42 39 37 39 41 39
69 68 61 64 67 70 72 69 64 61 63 65 66 66 64 61 62 63 65 64 60 55 54 54 56 56 55 54 47 46 46 41 39 45 47 45 44 42 41 38 38 38 40 39 39
73 73 67 69 71 73 74 68 60 57 57 59 61 63 65 59 60 57 60 63 57 55 51 48 48 52 51 47 46 46 47 47 44 43 47 46 44 42 42 40 41 42 41 37 37
76 73 71 73 76 76 74 72 68 61 58 58 59 58 57 57 56 54 55 47 60 57 60 55 48 46 47 49 52 50 42 45 47 47 49 48 44 44 41 43 42 43 41 37 40
76 76 75 76 76 75 74 73 70 63 59 59 56 52 54 55 53 54 51 47 43 44 49 48 48 52 53 49 50 51 45 50 52 54 50 47 48 46 42 42 41 39 39 39 42
79 81 77 80 78 69 67 67 65 63 60 54 54 51 50 52 51 53 52 50 52 35 44 46 45 54 40 43 43 42 41 34 39 40 50 46 46 45 40 38 38 39 38 40 42
68 66 66 69 72 72 68 64 53 51 54 55 55 48 45 50 49 46 45 45 46 49 49 48 53 52 56 38 40 44 38 40 38 39 40 45 42 45 42 36 40 40 39 42 43
55 54 57 55 54 56 59 58 58 42 44 46 46 43 45 40 45 46 45 48 47 42 41 47 48 55 56 50 46 53 21 33 34 35 41 47 41 39 36 38 40 42 42 42 40
Wind_Direction
268 266 264 265 264 265 263 269 271 272 272 272 276 277 281 281 282 278 272 274 267 270 268 266 263 261 260 258 259 262 260 254 249 254 264 263 263 263 268 269 272 274 263 268 271
268 266 264 264 264 264 263 265 269 270 271 270 269 273 277 279 283 283 272 271 273 266 267 268 267 267 260 257 257 258 260 261 261 255 258 264 267 269 267 267 263 268 270 265 267
266 263 262 260 262 264 266 265 267 267 267 268 266 269 274 276 275 278 275 275 269 268 272 274 273 266 264 266 260 259 254 257 259 261 262 267 272 273 267 267 266 265 271 275 272
264 260 259 260 262 263 263 264 268 267 267 266 264 267 269 274 277 274 278 280 272 270 271 271 269 266 265 260 262 260 258 260 264 261 260 264 266 268 270 270 274 274 271 273 276
262 260 259 262 262 262 263 263 264 265 265 265 265 267 268 271 275 275 274 275 273 268 270 271 267 267 259 260 264 263 263 263 266 260 257 260 263 266 269 274 277 276 277 279 282
260 256 259 261 261 261 262 262 262 262 262 263 263 266 271 272 269 269 269 267 273 275 270 264 270 259 256 261 264 264 262 263 266 267 266 266 268 268 271 275 275 278 280 280 287
256 259 262 263 262 260 261 261 260 259 262 264 264 266 266 263 269 268 265 269 275 267 267 265 261 266 268 259 259 259 262 264 267 265 265 266 268 268 269 270 273 276 279 286 287
260 260 261 262 261 261 262 260 252 259 263 261 260 265 263 260 266 263 266 267 270 265 259 265 263 269 271 270 263 259 258 258 259 267 269 256 259 265 267 269 267 274 279 279 282
259 261 261 262 261 262 261 262 263 260 260 261 263 260 254 260 268 264 256 253 264 259 250 255 256 269 270 263 263 257 252 252 252 260 258 255 265 272 267 269 273 280 282 282 288
258 260 260 259 261 261 261 260 263 261 259 263 262 257 253 260 272 268 256 252 251 257 256 251 250 254 255 257 253 250 252 256 253 251 261 261 249 262 264 266 273 283 285 290 299
257 259 259 261 261 259 259 260 258 261 261 257 259 259 262 255 254 258 263 253 248 248 253 255 252 256 251 252 249 250 255 258 262 256 253 249 246 251 263 278 297 293 290 295 316
257 258 258 260 262 261 261 261 260 259 256 259 258 260 262 266 254 246 243 257 258 248 253 256 253 251 254 258 254 251 251 247 252 260 261 260 246 229 248 275 293 297 298 305 322
259 258 259 260 260 261 259 259 259 258 257 253 257 256 257 260 260 243 241 245 254 259 260 255 255 252 255 256 253 247 244 251 260 266 268 270 267 272 280 287 288 289 293 300 309
260 260 259 259 258 259 261 261 260 258 255 257 254 254 252 255 256 259 252 248 252 256 256 255 259 258 253 255 257 249 248 254 262 268 269 268 271 281 284 287 287 293 297 303 293
258 258 259 258 259 259 258 259 260 259 257 258 259 256 253 254 255 253 254 254 250 250 251 255 255 254 254 255 255 252 256 264 261 257 258 259 270 279 278 283 286 288 293 298 298
259 258 258 259 259 258 257 257 256 253 254 256 258 259 258 254 251 252 255 254 254 250 248 247 254 256 256 255 255 256 259 263 260 261 261 268 268 269 278 281 285 288 289 296 302
258 258 258 257 256 255 254 252 250 249 255 258 259 260 259 258 254 252 253 254 252 252 252 253 249 257 255 254 255 256 262 266 260 260 270 274 270 275 279 284 285 286 291 298 299
253 253 254 253 251 250 250 248 246 252 258 259 259 255 257 257 255 252 249 249 251 255 255 252 251 255 258 257 258 255 252 258 265 271 269 269 272 277 281 284 287 289 294 295 295
250 249 249 250 250 250 249 249 248 251 253 252 246 250 250 252 254 255 252 250 250 252 254 255 252 251 252 253 250 247 251 260 261 262 264 266 271 276 280 282 286 291 292 289 289
250 247 245 248 248 248 249 250 248 246 246 246 244 243 244 244 247 249 252 252 249 249 251 254 254 251 249 252 250 250 254 259 266 268 268 268 272 277 284 285 285 285 283 281 290
251 249 246 249 248 248 248 249 250 249 249 250 248 247 245 245 248 247 247 248 250 251 249 249 251 251 250 249 255 258 258 260 262 264 266 265 268 277 274 273 274 276 277 282 286
250 251 247 249 250 250 252 253 252 247 250 250 248 248 246 246 248 247 250 248 244 245 241 247 255 253 255 255 248 249 253 256 257 271 270 268 271 274 273 276 279 281 280 285 287
251 250 247 248 249 250 251 251 249 244 245 248 249 246 246 245 247 246 248 252 248 251 251 248 250 248 241 240 243 255 268 261 269 272 269 268 274 268 267 268 270 275 281 287 284
251 251 248 249 250 251 251 252 250 247 244 246 246 244 240 238 238 242 242 244 247 251 252 247 247 246 247 253 253 253 253 264 266 266 265 269 267 266 266 264 265 269 276 276 279
251 252 250 249 249 247 248 250 248 245 243 242 243 244 244 240 238 238 239 240 237 248 239 245 245 255 246 246 247 248 249 261 269 273 268 269 268 268 260 257 263 269 275 278 280
248 252 252 251 248 245 244 244 244 241 240 240 244 247 244 239 236 239 239 239 241 245 244 257 251 251 254 262 264 260 252 270 273 276 277 272 274 270 263 265 267 271 275 277 278
248 250 249 251 248 235 241 244 245 239 235 233 237 235 236 237 238 235 235 236 240 243 248 250 252 255 247 261 257 261 256 293 271 260 269 273 275 269 267 268 273 276 276 278 280